Theta_e
314 317 316 313 314 309 313 316 311 314 319 322 327 332 331 329 334 337 336 347 347 343 342 341 339 339 339 339 339 339 339 339 335 334 337 340 343 344 343 341 340 341 344 344 342 340 340 341 337
315 317 314 308 311 310 313 313 314 314 313 318 319 321 329 327 327 328 340 348 347 343 341 340 339 339 339 338 338 338 339 340 337 334 335 336 339 340 340 339 339 339 339 339 340 339 339 337 335
315 315 311 310 309 314 315 312 310 311 313 313 320 317 319 320 317 320 328 347 347 344 342 342 341 340 339 339 338 338 339 339 340 336 335 335 335 336 337 338 336 333 332 332 335 336 336 335 334
315 309 306 313 318 316 312 310 308 308 314 316 318 318 313 313 315 310 321 344 347 347 346 345 342 341 340 340 339 337 338 339 341 339 336 335 335 336 336 334 333 334 335 335 335 336 336 335 336
310 304 310 312 315 314 311 308 307 307 311 315 317 315 312 310 309 308 310 340 334 334 338 344 343 342 342 341 341 340 339 339 340 341 339 337 336 335 336 334 336 338 337 337 337 336 336 336 336
306 304 308 311 312 310 309 308 308 308 307 307 315 309 308 308 307 307 309 310 312 316 325 336 339 342 344 344 342 340 339 339 341 341 341 339 337 336 335 335 338 339 337 337 336 336 336 336 335
306 304 308 308 310 309 308 306 307 308 307 307 309 313 308 305 305 308 309 309 309 308 309 309 310 312 315 327 340 342 341 339 339 339 341 341 339 338 337 336 336 338 338 337 337 336 336 336 335
301 302 306 307 308 308 307 308 307 307 307 308 307 307 307 304 308 308 308 308 307 307 307 307 307 308 309 310 313 328 340 340 339 338 338 339 341 339 338 337 337 338 338 337 337 336 336 336 336
300 301 303 306 305 307 306 307 307 306 306 307 304 305 305 307 307 308 306 304 304 304 304 304 305 306 307 308 309 311 315 328 340 339 337 336 336 340 339 338 338 338 338 337 337 336 336 336 335
300 299 303 304 305 306 306 306 306 306 304 306 304 307 305 304 303 301 300 300 299 299 300 300 301 303 304 305 307 308 310 312 324 334 338 338 336 337 338 339 338 339 339 338 337 336 336 336 336
302 302 302 304 304 304 305 305 304 305 305 304 304 306 302 301 300 299 299 298 297 297 297 297 298 299 300 302 303 305 306 308 310 321 331 329 336 341 338 339 339 339 339 339 338 337 337 336 336
304 303 303 304 304 304 305 305 305 304 302 305 304 302 300 299 298 297 297 296 296 296 295 295 296 297 298 299 300 301 303 305 306 309 313 332 334 335 342 343 340 339 339 339 339 338 337 336 336
303 304 303 303 302 302 304 304 305 305 303 301 300 299 298 298 297 296 296 295 294 294 294 295 295 295 296 298 299 300 301 301 303 305 308 311 331 336 337 337 340 342 342 340 339 338 338 336 335
303 303 302 302 302 303 304 305 303 305 302 301 299 297 296 297 296 295 295 294 293 292 292 293 293 294 294 295 296 297 298 299 300 302 303 305 311 331 335 336 337 337 340 339 340 341 340 337 335
303 304 303 304 303 304 303 304 303 304 301 300 298 297 297 296 296 294 294 293 292 291 291 291 291 292 293 294 294 294 295 296 297 299 300 302 304 321 327 332 335 336 337 339 337 335 338 338 335
304 303 304 303 303 304 305 306 304 301 301 299 297 297 296 296 295 295 294 293 292 291 290 290 291 291 292 292 293 293 294 294 294 295 297 299 301 305 323 329 333 335 338 337 338 335 334 338 335
302 305 306 305 303 305 306 305 304 301 301 299 296 295 295 295 294 294 293 292 291 290 290 290 290 290 290 291 291 291 292 292 293 294 295 296 298 301 306 321 332 335 336 335 336 335 334 336 335
305 306 305 305 305 303 304 304 303 300 299 298 296 295 294 294 294 293 292 291 290 289 289 289 289 290 289 290 290 291 291 292 292 293 293 295 297 298 303 307 322 335 335 336 336 335 335 336 334
305 305 305 304 305 304 304 304 303 300 299 297 296 294 294 293 293 293 291 290 289 289 288 288 289 289 289 290 290 291 291 292 292 292 293 294 297 299 300 301 308 325 328 328 336 336 334 332 333
306 306 306 305 304 304 304 305 303 302 300 297 295 294 293 292 292 292 291 289 289 288 288 289 289 289 289 290 290 290 291 291 292 293 294 295 297 299 304 308 314 319 328 320 335 334 334 333 332
306 307 307 307 306 307 307 306 304 302 299 298 296 294 293 292 291 291 290 289 288 288 288 289 289 289 289 289 289 290 290 291 292 293 293 294 296 298 302 305 308 310 318 327 325 334 334 333 332
307 307 307 306 308 308 306 308 306 303 302 299 296 294 292 291 290 290 289 288 288 288 289 289 288 289 289 288 289 290 290 291 292 293 294 294 295 297 299 303 305 308 314 327 329 331 333 334 332
307 308 308 308 308 308 308 305 306 304 304 302 297 295 292 291 290 289 288 288 288 288 289 288 288 288 288 288 289 290 290 291 291 293 294 296 297 298 299 301 303 305 312 317 327 329 332 334 333
306 308 308 307 307 309 308 308 306 306 306 301 297 294 293 291 290 289 288 287 288 288 288 288 288 288 288 288 288 289 290 291 292 293 294 296 299 300 301 302 303 308 314 315 318 325 322 323 332
307 307 309 310 311 312 309 308 307 302 300 299 296 294 293 290 289 288 287 287 287 288 288 288 288 288 288 288 288 288 289 289 290 292 294 295 297 300 302 303 306 309 312 314 314 321 324 322 328
307 307 309 314 311 309 310 312 307 302 299 297 296 293 291 289 288 286 286 286 286 287 287 287 287 287 288 287 288 288 288 288 289 290 291 294 296 300 303 305 307 308 313 316 315 321 323 321 319
308 309 308 312 310 307 308 309 302 300 299 297 296 293 289 288 286 285 285 286 287 286 286 287 286 287 287 287 287 288 287 287 288 288 289 291 293 296 302 308 308 312 316 317 318 318 321 323 321
308 307 308 309 316 318 313 309 307 303 302 296 290 291 288 287 285 284 285 286 286 287 287 286 286 286 286 286 286 287 287 286 286 286 287 288 290 294 298 307 308 310 311 313 315 317 318 321 318
308 309 311 312 314 314 308 305 304 301 297 295 291 288 286 284 283 282 284 286 286 287 286 286 285 285 284 285 285 286 285 286 285 284 285 286 288 290 292 296 301 304 306 311 316 316 316 320 321
308 311 312 310 314 313 309 308 301 300 297 296 294 288 284 284 281 280 284 285 285 286 286 285 285 284 283 283 283 284 284 285 283 283 283 283 286 287 289 291 294 296 297 302 309 311 310 310 307
Wind_Speed
14 10 5 4 3 5 2 2 1 7 5 7 3 10 9 5 3 4 10 17 13 5 2 1 1 1 1 2 2 3 4 5 7 10 14 17 19 19 19 20 19 19 18 18 16 15 14 12 9
10 6 4 2 4 4 4 5 6 3 2 6 6 4 7 5 4 3 9 19 13 8 5 3 4 4 3 2 2 2 2 4 5 8 11 14 17 18 18 18 17 17 16 16 16 15 13 12 9
5 7 4 4 3 3 2 7 8 5 6 2 4 5 4 4 4 4 13 12 12 9 9 8 8 7 5 4 3 2 2 3 5 7 10 11 13 16 17 17 17 16 15 15 16 14 12 11 9
4 6 4 5 4 1 1 7 7 7 7 9 3 7 5 8 3 9 18 14 14 13 10 10 9 9 9 9 8 5 3 4 6 8 10 12 13 14 16 17 17 16 15 15 15 13 12 10 10
6 3 4 4 1 2 1 4 4 10 3 7 2 4 4 5 11 18 22 18 19 14 12 13 13 12 12 11 11 11 9 5 6 9 11 13 14 15 17 18 16 15 15 15 14 13 13 12 12
4 3 5 4 3 2 2 2 3 4 5 5 7 4 2 12 21 20 23 26 28 29 25 19 16 16 13 13 13 13 11 10 7 8 10 12 13 15 16 17 17 16 16 16 16 15 14 14 14
5 4 3 5 4 2 1 3 3 2 5 6 0 4 3 12 16 20 23 24 25 27 27 27 25 23 20 16 13 14 13 12 10 10 10 12 14 15 16 18 18 17 16 16 16 16 15 15 15
4 4 2 2 3 2 2 2 1 3 2 2 2 3 3 3 11 14 18 22 23 25 26 27 25 24 24 22 18 14 14 13 14 12 13 13 14 16 17 18 19 19 19 18 18 17 16 16 16
3 4 1 3 3 1 2 1 3 2 3 3 6 6 5 10 12 16 23 26 26 27 28 27 27 26 25 24 22 20 16 13 12 16 15 16 17 18 19 20 21 21 21 20 19 18 18 17 17
5 3 3 2 2 1 2 2 3 1 6 1 7 9 19 26 28 25 25 23 30 32 30 31 30 28 27 25 23 21 20 18 14 13 17 17 21 20 21 23 23 24 23 22 21 20 19 19 20
1 4 1 3 3 4 2 2 2 2 1 4 6 5 12 20 21 20 20 21 22 23 29 32 32 31 32 31 27 24 23 20 18 15 12 16 20 21 22 24 25 26 26 24 23 22 22 22 22
3 2 2 5 2 5 3 3 2 3 2 6 12 9 12 13 16 18 18 23 27 27 29 32 33 33 34 33 32 32 27 26 23 19 17 15 19 22 24 25 28 29 29 28 27 26 25 25 24
1 4 7 7 10 7 2 7 2 4 6 11 15 16 13 13 15 16 17 20 25 31 34 35 34 35 36 35 35 35 35 32 28 27 23 17 17 22 25 29 26 29 29 31 31 30 29 28 26
3 4 8 8 5 5 7 2 8 3 6 12 14 11 9 11 13 17 21 23 27 28 33 34 33 35 36 36 36 36 36 34 34 31 30 26 20 20 23 29 29 31 33 30 31 30 30 31 29
4 7 8 3 5 2 5 4 5 6 5 12 10 9 8 12 15 17 17 18 22 26 30 31 29 34 36 37 37 37 36 36 36 35 33 31 27 21 25 24 31 33 32 35 33 30 29 30 31
3 4 5 5 7 4 3 1 3 4 5 9 8 7 7 7 13 15 20 24 26 29 29 29 31 36 38 37 37 36 36 36 35 33 34 32 32 27 24 27 29 34 37 35 37 34 31 29 33
6 0 2 9 4 3 5 4 2 4 6 7 6 7 7 7 13 18 21 23 26 29 29 32 34 33 37 37 35 33 33 34 33 32 31 35 33 31 29 29 27 36 37 40 38 36 33 27 28
3 3 2 4 6 6 6 4 3 4 7 6 6 6 7 9 10 17 21 23 25 28 29 30 32 33 33 30 30 29 29 28 31 33 31 30 32 32 34 33 30 32 36 36 37 37 35 31 29
3 3 6 6 10 2 7 4 5 4 5 7 7 9 10 10 13 17 20 22 24 27 28 29 29 30 30 28 29 30 30 31 30 30 32 31 33 32 35 35 29 28 36 37 37 37 33 29 30
5 4 6 6 8 6 7 4 4 3 3 3 6 8 9 11 12 19 21 22 24 25 28 30 31 31 31 27 30 29 30 31 33 29 31 29 29 30 28 26 26 23 29 38 37 35 28 28 30
5 6 5 9 3 4 3 3 4 2 5 5 4 2 4 7 11 13 21 24 26 29 31 32 31 31 30 30 29 31 31 30 29 28 30 29 29 32 29 30 29 25 24 33 41 33 35 26 29
4 6 8 5 2 4 1 6 5 4 6 3 3 5 6 6 7 12 19 25 26 28 29 31 31 30 29 30 30 29 29 30 33 34 31 32 32 32 29 27 28 24 22 23 31 32 46 32 25
7 3 4 4 4 0 2 2 1 5 5 3 3 4 5 6 7 11 16 19 23 26 27 28 26 29 29 30 29 31 29 29 30 32 32 32 32 29 29 30 30 27 20 23 18 28 27 38 31
4 4 3 4 3 2 6 9 3 4 3 2 1 3 5 7 8 12 17 20 22 26 28 26 28 30 30 31 31 30 30 31 29 28 29 27 28 29 27 28 28 23 22 22 25 23 43 35 30
3 4 3 3 1 5 1 3 8 5 4 3 1 4 6 7 8 10 14 17 24 29 27 28 30 31 32 33 32 29 31 31 29 28 25 29 28 28 26 24 24 26 25 25 23 26 38 34 27
2 5 3 5 2 4 2 5 5 3 5 4 3 3 5 7 7 8 14 17 22 25 27 31 32 32 33 33 34 33 32 29 26 26 29 28 28 28 30 29 29 30 27 24 22 24 31 36 33
3 1 5 3 1 1 3 3 0 5 5 3 2 4 6 6 6 7 15 17 24 24 29 29 29 30 30 33 33 33 34 33 31 30 29 27 26 27 29 26 24 24 25 24 23 22 29 33 43
3 3 3 2 4 4 3 3 5 7 9 4 1 2 4 5 6 7 15 21 22 25 28 29 27 27 29 32 32 33 32 35 36 34 33 33 32 29 28 3 6 12 16 24 30 25 27 32 27
6 2 2 3 3 3 2 5 1 3 5 6 4 3 2 4 6 6 14 20 22 26 26 28 29 29 33 33 34 33 36 33 35 34 35 35 37 40 34 19 8 5 6 7 23 20 18 20 19
5 2 3 3 1 3 2 5 2 4 6 5 6 5 3 1 5 7 13 19 23 24 25 28 29 29 32 33 32 34 35 33 36 37 40 44 43 40 37 31 28 20 17 12 9 11 18 19 16
Wind_Direction
340 341 11 38 39 65 36 306 267 336 59 322 6 83 104 93 85 153 324 3 0 21 83 119 137 166 205 208 203 190 168 158 154 149 147 151 158 160 161 162 165 167 171 172 175 183 182 186 191
349 10 56 77 76 48 299 316 326 268 241 191 70 38 52 71 25 50 19 5 15 37 47 24 344 337 324 301 269 226 199 174 170 162 157 159 164 167 167 169 170 172 177 175 178 184 187 191 198
3 33 75 83 87 101 305 325 288 285 323 171 108 63 49 347 358 32 358 1 15 33 28 9 354 344 342 331 325 307 245 209 191 180 171 171 174 173 171 173 173 174 174 174 177 182 189 199 198
8 22 40 79 104 104 47 296 314 345 14 25 24 60 65 27 47 12 20 29 26 23 9 357 356 351 348 340 331 317 278 230 209 199 189 184 184 184 178 176 176 176 178 184 188 192 193 202 192
40 44 69 92 236 229 254 304 342 40 80 15 25 76 75 23 38 37 41 54 46 35 25 22 12 357 345 342 337 327 308 271 230 214 201 196 196 193 188 186 186 189 190 193 198 197 197 201 198
33 94 63 143 210 230 258 313 8 44 17 7 59 81 75 43 54 66 73 65 58 54 52 43 29 21 11 1 346 329 318 301 270 229 222 213 209 206 202 200 194 199 198 198 196 201 199 201 203
99 71 174 176 183 124 248 281 58 24 55 7 199 118 166 49 81 80 72 63 54 48 44 41 38 35 31 20 3 350 324 309 291 268 240 226 219 217 216 212 207 205 208 207 203 202 199 201 203
97 89 114 275 175 184 309 93 146 81 132 247 110 109 79 8 80 83 65 53 44 36 31 26 23 23 22 21 19 3 355 327 304 285 267 247 233 227 225 222 217 212 212 212 209 207 203 205 204
116 55 65 243 128 209 309 128 325 14 44 36 28 54 31 56 65 52 35 28 26 24 20 16 12 11 9 8 11 12 1 353 324 301 283 271 254 237 231 228 223 220 218 217 214 211 208 206 205
75 96 234 222 295 346 262 218 229 39 7 117 83 36 40 52 47 40 28 16 14 10 10 10 8 5 2 1 357 358 359 358 347 332 301 289 271 252 239 233 230 224 224 221 217 215 212 210 207
20 168 205 323 288 319 279 270 208 148 254 13 121 94 50 52 44 40 27 20 9 3 3 3 2 360 358 355 351 347 344 342 340 334 326 306 285 267 254 238 232 229 225 223 220 216 213 213 211
5 247 117 290 309 343 283 314 279 74 158 84 88 88 68 53 44 35 22 11 5 2 0 358 359 354 353 350 347 342 338 330 325 319 319 313 297 286 263 247 235 230 227 224 221 217 216 215 215
151 333 317 270 279 240 271 238 228 92 94 84 82 68 59 54 44 34 25 14 4 359 357 357 356 352 349 346 342 337 332 328 318 311 306 308 292 281 272 256 238 230 224 226 225 222 218 217 216
305 257 272 275 278 250 186 217 112 238 115 80 73 68 58 55 40 26 18 6 1 354 353 353 353 350 348 344 339 334 330 325 317 308 302 296 295 277 278 263 246 233 223 219 222 222 218 222 217
291 322 332 360 335 289 141 72 20 56 89 73 61 67 59 44 30 27 9 0 353 351 348 350 346 349 347 342 338 333 328 323 318 310 303 295 287 282 272 265 251 236 226 221 223 222 219 224 221
23 48 3 303 1 347 122 250 30 13 78 62 49 43 45 31 23 11 2 358 353 350 348 346 347 348 346 342 338 333 329 325 320 315 307 298 288 279 275 273 256 241 228 219 218 220 219 220 223
6 76 345 325 2 342 60 279 132 46 97 71 40 31 19 6 15 7 358 352 349 350 348 347 349 346 345 341 338 333 329 326 322 314 308 303 294 280 273 265 267 241 230 213 212 215 215 213 216
314 344 313 277 289 356 322 233 128 61 86 78 42 20 15 9 2 352 351 348 349 351 351 347 347 346 342 335 333 329 325 322 320 317 311 307 299 288 274 269 263 244 226 223 209 210 212 212 210
244 227 249 258 267 263 254 243 164 118 55 40 27 16 8 359 338 349 349 349 349 355 352 346 344 342 341 339 335 327 324 321 316 312 308 303 305 294 281 274 276 277 230 251 212 211 204 208 204
243 261 268 274 270 178 268 250 152 154 102 88 39 16 358 347 348 348 348 350 355 351 350 350 347 343 341 334 326 322 318 312 309 307 303 301 296 295 292 280 268 271 240 233 233 208 204 208 196
241 224 213 232 309 285 290 259 182 159 128 120 87 45 350 342 338 341 347 353 355 356 352 348 343 340 335 333 328 324 321 315 313 310 304 300 295 295 291 282 282 282 284 232 226 212 204 202 200
263 226 244 248 132 238 85 286 223 166 164 124 41 20 348 337 337 338 348 352 354 354 349 346 343 338 336 334 331 325 318 314 310 305 300 297 295 289 283 281 278 275 277 252 230 231 215 206 194
250 283 252 201 194 219 214 54 37 128 211 197 45 20 346 337 336 348 346 350 355 355 349 345 336 342 340 337 335 329 319 310 306 302 298 296 292 289 282 278 277 271 260 255 248 218 225 215 199
256 299 22 48 100 275 218 177 257 192 189 171 41 357 344 353 354 347 352 356 354 354 352 343 346 345 343 342 340 330 322 319 312 305 304 301 297 286 282 276 270 256 252 251 244 239 233 259 229
99 55 330 321 11 232 134 111 244 177 179 158 151 3 357 354 349 351 346 352 0 354 338 354 350 347 348 346 344 340 337 330 316 312 310 307 300 292 283 278 269 257 246 248 237 235 210 222 252
273 161 174 280 239 267 341 242 278 111 127 128 118 100 13 4 349 338 335 358 3 337 344 358 352 347 351 349 349 347 347 341 333 336 331 318 306 301 289 272 268 268 252 245 242 226 219 230 250
328 79 196 267 262 12 223 301 101 144 178 184 132 49 9 359 338 332 338 3 9 331 356 356 348 347 352 353 352 350 353 353 350 355 351 336 330 325 310 266 264 256 244 242 239 230 209 201 208
189 227 341 358 285 250 276 269 242 217 215 177 297 51 356 344 348 335 346 8 5 358 1 359 354 355 354 356 353 357 354 4 2 4 1 355 355 3 352 203 219 241 251 245 238 229 224 213 223
308 286 108 165 195 247 271 260 277 229 170 183 210 170 267 325 338 321 352 16 12 14 6 2 359 0 4 358 359 3 3 7 12 10 8 9 12 19 7 12 56 28 336 271 229 224 227 211 180
208 129 85 142 327 300 278 269 333 149 161 165 172 168 230 290 300 335 7 18 16 13 7 6 1 5 8 7 5 7 9 13 17 20 21 21 21 19 16 18 46 54 52 61 112 144 124 126 113